AT518 Weather Reports


time (UTC)temp
C
wind
direction
speed
KPH
gust
KPH
rain 1hr
cm
rain 24hr
cm
rain mn
cm
humidity
%
barometer
mb
20260509161554 25 207 4.8 12.9 0.00 0.00 0.00 81 1012.8
20260509160052 26 198 0.0 4.8 0.00 0.00 0.00 79 1012.7
20260509154552 25 0 0.0 9.7 0.00 0.00 0.00 83 1012.7
20260509153055 24 265 0.0 9.7 0.00 0.00 0.00 90 1012.7
20260509151549 23 0 1.6 9.7 0.00 0.00 0.00 95 1012.8
20260509150046 22 0 0.0 0.0 0.00 0.00 0.00 96 1012.7
20260509144547 22 0 0.0 0.0 0.00 0.00 0.00 97 1012.7
20260509143054 21 0 0.0 0.0 0.00 0.00 0.00 98 1012.8
20260509141551 21 0 0.0 0.0 0.00 0.00 0.00 98 1012.6
20260509140051 21 0 0.0 0.0 0.00 0.00 0.00 98 1012.6
20260509134554 21 0 0.0 0.0 0.00 0.00 0.00 99 1012.4
20260509133059 21 0 0.0 0.0 0.00 0.00 0.00 98 1012.5
20260509131547 21 0 0.0 0.0 0.00 0.00 0.00 98 1012.2
20260509130046 21 0 0.0 6.4 0.00 0.00 0.00 98 1011.9
20260509124555 21 0 0.0 4.8 0.00 0.00 0.00 98 1011.6
20260509123051 21 0 3.2 11.3 0.00 0.00 0.00 98 1011.4
20260509121548 21 211 4.8 14.5 0.00 0.00 0.00 98 1011.3
20260509120044 20 178 9.7 25.7 0.00 0.00 0.00 98 1010.9
20260509114558 20 204 11.3 19.3 0.00 0.00 0.00 98 1010.9
20260509113051 20 194 9.7 20.9 0.00 0.00 0.00 98 1010.8
20260509111551 20 177 6.4 24.1 0.00 0.00 0.00 97 1010.8
20260509110053 20 186 12.9 24.1 0.00 0.00 0.00 98 1010.7
20260509104549 20 181 11.3 19.3 0.00 0.00 0.00 97 1011.0
20260509103054 20 184 8.0 17.7 0.00 0.00 0.00 97 1011.2
20260509101550 20 0 1.6 6.4 0.00 0.00 0.00 97 1011.6
20260509094548 21 0 0.0 0.0 0.00 0.00 0.00 96 1011.8
20260509093048 21 0 0.0 0.0 0.00 0.00 0.00 96 1011.9
20260509091552 21 0 0.0 6.4 0.00 0.00 0.00 96 1012.0
20260509090051 21 220 0.0 8.0 0.00 0.00 0.00 95 1012.1
20260509084551 21 209 0.0 4.8 0.00 0.00 0.00 95 1012.5
20260509083051 21 0 1.6 6.4 0.00 0.00 0.00 95 1012.9
20260509081547 21 0 1.6 4.8 0.00 0.00 0.00 95 1012.7
20260509080108 21 175 1.6 9.7 0.00 0.00 0.00 94 1012.6
20260509074547 21 0 1.6 8.0 0.00 0.00 0.00 94 1012.9
20260509073144 21 155 0.0 8.0 0.00 0.00 0.00 94 1013.1
20260509071549 21 169 3.2 11.3 0.00 0.00 0.00 94 1012.7
20260509070050 21 153 6.4 14.5 0.00 0.00 0.00 94 1012.3
20260509064549 21 105 3.2 6.4 0.00 0.00 0.00 93 1012.4
20260509063048 21 86 1.6 6.4 0.00 0.00 0.00 93 1012.6
20260509061555 21 38 1.6 4.8 0.00 0.00 0.00 93 1012.8
20260509060050 21 0 0.0 3.2 0.00 0.00 0.00 93 1012.5
20260509054554 21 0 0.0 1.6 0.00 0.00 0.00 93 1012.7
20260509053053 21 161 0.0 4.8 0.00 0.00 0.00 92 1012.3
20260509051558 21 0 0.0 3.2 0.00 0.00 0.00 92 1012.4
20260509050050 21 177 6.4 12.9 0.00 0.00 0.00 92 1012.2
20260509044544 21 0 0.0 0.0 0.00 0.00 0.00 92 1012.2
20260509043055 21 0 0.0 6.4 0.00 0.00 0.00 92 1012.4
20260509041551 21 19 1.6 6.4 0.00 0.00 0.00 92 1012.4
20260509034548 21 130 0.0 4.8 0.00 0.00 0.00 92 1011.8
20260509033044 21 0 1.6 8.0 0.00 0.00 0.00 91 1011.5
20260509031544 21 170 3.2 12.9 0.00 0.00 0.00 91 1011.3
20260509030049 21 178 8.0 16.1 0.00 0.00 0.00 91 1011.2
20260509024549 22 166 9.7 16.1 0.00 0.00 0.00 90 1010.8
20260509023047 22 176 6.4 16.1 0.00 0.00 0.00 90 1010.7
20260509021544 22 152 8.0 17.7 0.00 0.00 0.00 90 1010.6
20260509020053 21 151 8.0 19.3 0.00 0.00 0.00 89 1010.4
20260509014550 22 171 9.7 17.7 0.00 0.00 0.00 89 1010.2
20260509013102 22 193 8.0 14.5 0.00 0.00 0.00 88 1010.4
20260509011551 22 161 9.7 14.5 0.00 0.00 0.00 88 1010.4
20260509010054 22 162 4.8 14.5 0.00 0.00 0.00 88 1010.4
20260509004611 22 163 6.4 11.3 0.00 0.00 0.00 86 1010.2
20260509003056 23 179 8.0 16.1 0.00 0.00 0.00 84 1010.2
20260509001551 23 167 4.8 16.1 0.00 0.00 0.00 83 1010.3
20260509000052 23 159 1.6 12.9 0.00 0.00 0.00 82 1010.6
20260508234557 23 148 3.2 14.5 0.00 0.00 0.00 82 1010.3
20260508233114 23 119 6.4 14.5 0.00 0.00 0.00 81 1010.4
20260508231556 24 169 8.0 16.1 0.00 0.00 0.00 80 1010.6
20260508230056 23 138 6.4 16.1 0.00 0.00 0.00 81 1010.5
20260508224548 23 0 1.6 11.3 0.00 0.00 0.00 80 1010.6
20260508223046 23 0 4.8 11.3 0.00 0.00 0.00 82 1011.0
20260508221548 23 110 6.4 14.5 0.00 0.00 0.00 80 1011.3
20260508220054 23 161 3.2 12.9 0.00 0.00 0.00 82 1011.6
20260508214550 23 0 1.6 9.7 0.00 0.00 0.00 81 1011.5
20260508213050 23 130 4.8 11.3 0.00 0.00 0.00 82 1011.8
20260508211545 23 0 1.6 9.7 0.00 0.00 0.00 82 1012.0
20260508210106 23 165 0.0 9.7 0.00 0.00 0.00 82 1012.2
20260508204547 23 178 6.4 14.5 0.00 0.00 0.00 80 1012.3
20260508203049 23 176 1.6 12.9 0.00 0.00 0.00 81 1012.3
20260508201548 24 153 1.6 11.3 0.00 0.00 0.00 77 1012.3
20260508200049 23 155 0.0 12.9 0.00 0.00 0.00 79 1012.4
20260508194550 23 121 4.8 14.5 0.00 0.00 0.00 78 1012.5
20260508193053 23 130 1.6 11.3 0.00 0.00 0.00 79 1012.8
20260508191548 22 105 6.4 16.1 0.00 0.00 0.00 79 1013.2
20260508190053 22 131 4.8 11.3 0.00 0.00 0.00 81 1013.2
20260508184606 21 109 0.0 3.2 0.00 0.00 0.00 81 1013.4
20260508183048 20 0 0.0 3.2 0.00 0.00 0.00 83 1013.7
20260508181601 19 0 0.0 3.2 0.00 0.00 0.00 85 1014.1
20260508180049 19 0 0.0 4.8 0.00 0.00 0.00 84 1014.4
20260508174545 19 0 1.6 12.9 0.00 0.00 0.00 86 1014.5
20260508173049 18 98 3.2 11.3 0.00 0.00 0.00 86 1014.7
20260508171550 18 103 3.2 9.7 0.00 0.00 0.00 85 1015.0
20260508170051 18 83 4.8 12.9 0.00 0.00 0.00 84 1015.1
20260508164600 18 69 4.8 14.5 0.00 0.00 0.00 84 1015.3
20260508163050 18 107 1.6 11.3 0.00 0.00 0.00 87 1015.4